Vedrin - Challenge Vals & Châteaux

La Sébastian à Vedrin (11.50 km)

Classement complet

Le classement original se trouve sur : www.chronorace.be/
CHALLENGE VAL & CHATEAUX
LA SÉBASTIAN - VEDRIN
DISTANCE : 11.50 km
dimanche 16 avril 2017
 
Place dos NOM Catégorie Pl/cat temps temps/km Vitesse
1 2675 VAN LEENDERT CHRISTOPHER SEH 1 00:40:37 03:32 16.99
2 2903 PIRON MATHIEU SEH 2 00:40:37 03:32 16.99
3 2882 MAHIA SEBASTIEN SEH 3 00:40:41 03:32 16.96
4 2829 MOURMAUX LAURENT V1 1 00:40:51 03:33 16.89
5 145 GEENS CHRISTOPHE SEH 4 00:40:58 03:34 16.84
6 994 GILBERT MICHEL V2 1 00:42:24 03:41 16.27
7 872 LONNOY FABRICE SEH 5 00:42:34 03:42 16.21
8 2652 LAHMAM MOHAMED HOUSSAM SEH 6 00:42:38 03:42 16.18
9 2598 BOLAIN DAIRY SEH 7 00:42:48 03:43 16.12
10 2618 DIEUDONNE NICOLAS SEH 8 00:43:06 03:45 16.01
11 232 BRUYERE PATRICK V1 2 00:44:02 03:50 15.67
12 900 WALLON STEVE SEH 9 00:44:02 03:50 15.67
13 2926 COULON OLIVIER SEH 10 00:44:04 03:50 15.66
14 770 GAZ CHRISTOPHE V1 3 00:44:32 03:52 15.49
15 779 VAN UYTVINCK LUCAS ESH 1 00:44:32 03:52 15.49
16 78 LECRENIER BENJAMIN SEH 11 00:44:37 03:53 15.47
17 2597 BINON MARTIN SEH 12 00:44:41 03:53 15.44
18 834 CHARLES PATRICK V1 4 00:45:02 03:55 15.32
19 161 BRUYÈRE STEVE SEH 13 00:45:15 03:56 15.25
20 2958 VERSAILLES ALBAN SEH 14 00:45:27 03:57 15.18
21 234 DASSELEER CHRISTIAN V1 5 00:45:29 03:57 15.17
22 967 BUFFET KEVIN SEH 15 00:45:30 03:57 15.16
23 2954 HANCE THIBAUT SEH 16 00:45:46 03:59 15.08
24 2922 GIOZZET FREDERIC SEH 17 00:45:51 03:59 15.05
25 2658 LORENT BERTRAND SEH 18 00:45:53 03:59 15.04
26 816 DESPIEGELEER JOFFREY SEH 19 00:45:53 03:59 15.04
27 116 RIGUELLE FRANÇOIS SEH 20 00:45:57 04:00 15.02
28 2812 DUBUC EMILE V1 6 00:46:07 04:01 14.96
29 2815 GUILLAUME PHILIPPE V1 7 00:46:19 04:02 14.90
30 2817 BELLANTE LORIS SEH 21 00:46:37 04:03 14.80
31 445 HARDENNE ANDRÉ V2 2 00:46:37 04:03 14.80
32 873 MARTIN ARTHUR SEH 22 00:46:45 04:04 14.76
33 177 FILÉE ERIC V2 3 00:46:54 04:05 14.71
34 2601 BOUCHONVILLE TAE BOK SEH 23 00:46:55 04:05 14.71
35 412 DUYCK XAVIER V2 4 00:46:59 04:05 14.69
36 2665 MONIOTTE GILLES-ANTOINE V1 8 00:47:04 04:06 14.66
37 801 OULUKOFF ANAIS SEF 1 00:47:10 04:06 14.63
38 102 GODFROID ERIC V1 9 00:47:20 04:07 14.58
39 800 PONCELET FRÉDÉRIC V1 10 00:47:35 04:08 14.50
40 811 VAN GEEL JULIEN SEH 24 00:47:44 04:09 14.46
41 875 MICHEL JEAN-BENOIT SEH 25 00:47:46 04:09 14.45
42 2924 CARPIAUX HUGO ESH 2 00:47:51 04:10 14.42
43 2848 GERMANES GEORGES SEH 26 00:47:55 04:10 14.40
44 324 GUISSET CHARLOTTE SEF 2 00:47:56 04:10 14.39
45 334 CORNIL THIERRY V1 11 00:47:57 04:10 14.39
46 2869 BODART SYLVAIN SEH 27 00:48:11 04:11 14.32
47 508 DALEBROUX VINCENT V2 5 00:48:13 04:12 14.31
48 230 PIFFER DANIEL V2 6 00:48:14 04:12 14.31
49 2865 DUBOIS PASCAL V2 7 00:48:15 04:12 14.30
50 2835 FREDEGAND V2 8 00:48:20 04:12 14.28
51 2897 TIXHON YORICK SEH 28 00:48:27 04:13 14.24
52 2909 RASCOUART BENOIT SEH 29 00:48:31 04:13 14.22
53 2962 GUILLERM DAVID V1 12 00:48:36 04:14 14.20
54 825 BARBIEUX PATRICE V3 1 00:48:36 04:14 14.20
55 273 JOUAN BERNARD V2 9 00:49:01 04:16 14.08
56 67 BERGER THIERRY V1 13 00:49:01 04:16 14.08
57 452 GEEROMS KRISTEL SEF 3 00:49:06 04:16 14.05
58 2824 DORIAN VANDEMERGEL SEH 30 00:49:09 04:16 14.04
59 2927 TONNEAUX JEROME SEH 31 00:49:20 04:17 13.99
60 2899 VANHOYE PASCAL V2 10 00:49:24 04:18 13.97
61 2608 DEGIMBE RAPHAEL V1 14 00:49:27 04:18 13.95
62 771 VOYEUX DAVID V1 15 00:49:31 04:18 13.93
63 2642 GOFFINET FLORENCE A1 1 00:49:31 04:18 13.93
64 2672 TRULLEMANS ALAIN V3 2 00:49:38 04:19 13.90
65 2670 STENHOUSE ALEC V2 11 00:49:38 04:19 13.90
66 2885 GORJON RUDI - 1 00:49:41 04:19 13.89
67 2664 MONIOTTE GABRIEL V1 16 00:49:47 04:20 13.86
68 773 MASURE ALEXANDRE V1 17 00:49:49 04:20 13.85
69 2870 DE BUDERLING GEORGES V2 12 00:49:53 04:20 13.83
70 79 BIERLAIRE NICOLAS V1 18 00:49:53 04:20 13.83
71 2615 DESQUESNES VINCENT V1 19 00:49:56 04:21 13.82
72 944 YAGUE-SANZ NATHALIE A2 1 00:49:59 04:21 13.80
73 2972 LORGE JEAN-MARC V2 13 00:50:05 04:21 13.78
74 286 VAN YCK TIMOTHY ESH 3 00:50:06 04:21 13.77
75 2604 COLPIN XAVIER SEH 32 00:50:07 04:21 13.77
76 134 MOLON ARTHUR ESH 4 00:50:10 04:22 13.75
77 2599 BONAERT QUENTIN SEH 33 00:50:15 04:22 13.73
78 2896 ZIMMER DYLAN SEH 34 00:50:15 04:22 13.73
79 2971 RAMI SAID V1 20 00:50:21 04:23 13.70
80 496 CLOSE MARC-ALEXANDRE SEH 35 00:50:24 04:23 13.69
81 2872 BELEKOM STEPHANE V2 14 00:50:30 04:23 13.66
82 2860 DESMIT BENJAMIN SEH 36 00:50:31 04:24 13.66
83 14 BEUGNIES DAVID SEH 37 00:50:40 04:24 13.62
84 233 DEWINTER EMMANUELLE SEF 4 00:50:44 04:25 13.60
85 793 RULLI DAVIDE V1 21 00:50:47 04:25 13.59
86 2592 ACUSILAS JEAN-YVES V1 22 00:50:57 04:26 13.54
87 2856 RENARD GIL-OLIVIER SEH 38 00:51:10 04:27 13.49
88 370 COLONVAL JEAN V2 15 00:51:13 04:27 13.47
89 73 VANNOORENBERGHE JOEL V1 23 00:51:14 04:27 13.47
90 2660 MÉLOTTE HENRI V2 16 00:51:22 04:28 13.43
91 2846 CESAR VINCENT V1 24 00:51:29 04:29 13.40
92 851 DEROY PHILIPPE V3 3 00:51:32 04:29 13.39
93 2840 SEYNAEVE BENOIT V1 25 00:51:36 04:29 13.37
94 941 D'ANGELO AMERINO V2 17 00:51:38 04:29 13.36
95 2843 CUVELIER SERGE V2 18 00:51:40 04:30 13.35
96 830 BLAMPAIN NICOLAS SEH 39 00:51:48 04:30 13.32
97 2809 YAGUE-SANZ LOUIS MICHEL V2 19 00:51:50 04:30 13.31
98 2831 DUTRIFOY JEAN-BAPTISTE V1 26 00:51:59 04:31 13.27
99 227 BRIDOUX ROMAIN SEH 40 00:52:01 04:31 13.26
100 2947 ISTASSE RAPHAEL SEH 41 00:52:02 04:31 13.26
101 2833 EVRARD CHRISTOPHE V1 27 00:52:03 04:32 13.26
102 2929 MANIQUET ETIENNE V1 28 00:52:12 04:32 13.22
103 765 FONTES E SA DUARTE V1 29 00:52:17 04:33 13.20
104 868 LAMBERT GERMAIN SEH 42 00:52:17 04:33 13.20
105 2657 LIBOIS MARC V1 30 00:52:18 04:33 13.19
106 2620 DUBRUNFAUT SAMUEL SEH 43 00:52:20 04:33 13.18
107 2878 PETITJEAN PHILIPPE V2 20 00:52:32 04:34 13.13
108 10 FERNANDEZ-VERA ANTONIO V2 21 00:52:36 04:34 13.12
109 2941 DARTE DIDIER V1 31 00:52:39 04:35 13.11
110 2898 RABEUX CHRISTINE A3 1 00:52:40 04:35 13.10
111 780 MAMERE JACQUES V3 4 00:52:40 04:35 13.10
112 2960 TEMMERMAN MAXIME SEH 44 00:52:44 04:35 13.08
113 2826 ROMAIN JEAN-FRANCOIS V1 32 00:52:47 04:35 13.07
114 2850 DUBOIS CLAUDE V1 33 00:52:54 04:36 13.04
115 2838 HENIN MICHEL V2 22 00:52:55 04:36 13.04
116 2634 DUQUENNE PHILIPPE V1 34 00:52:57 04:36 13.03
117 2937 GENGLER ANTHONY SEH 45 00:52:59 04:36 13.02
118 451 GEEROMS ALBERT V2 23 00:53:00 04:37 13.02
119 2948 DE BONDT MICHEL V2 24 00:53:01 04:37 13.01
120 2814 DESILLE JEREMIE SEH 46 00:53:05 04:37 13.00
121 2837 DIPRIMO MARCO ESH 5 00:53:07 04:37 12.99
122 2839 HOUGARDY OLIVIER V1 35 00:53:08 04:37 12.99
123 2866 GRAIDE NICOLAS SEH 47 00:53:10 04:37 12.98
124 2877 DE MOULIN BRIGITTE A3 2 00:53:11 04:37 12.97
125 251 DEMOULIN ALAIN V2 25 00:53:15 04:38 12.96
126 918 MASSART FREDERIC V1 36 00:53:15 04:38 12.96
127 318 MARTINAGE LIONEL V2 26 00:53:16 04:38 12.95
128 246 TSCHIRR GEORGES V3 5 00:53:18 04:38 12.95
129 2617 DIEUDONNE ANNE A2 2 00:53:20 04:38 12.94
130 2836 JEAN JEROME SEH 48 00:53:36 04:40 12.87
131 464 FERY ETIENNE V1 37 00:53:36 04:40 12.87
132 39 SCHIETTEKATTE GIGI A3 3 00:53:37 04:40 12.87
133 931 DEMIERBE FREDDY V3 6 00:53:59 04:42 12.78
134 2644 GREGOIRE AUDE SEF 5 00:53:59 04:42 12.78
135 2816 HOUGARDY BENOIT V2 27 00:54:02 04:42 12.77
136 4 RANDALL CHRISTOPHER V2 28 00:54:13 04:43 12.73
137 1 CHALLE RENAUD V2 29 00:54:16 04:43 12.71
138 2871 KEMPENEERS THIERRY V1 38 00:54:17 04:43 12.71
139 905 DE MASI GIANNI V3 7 00:54:18 04:43 12.71
140 2938 MOTTET CHRISTIAN V2 30 00:54:31 04:44 12.66
141 2636 FANTIN GAETANO V1 39 00:54:36 04:45 12.64
142 2676 VRANCKEN MARIO SEH 49 00:54:43 04:45 12.61
143 2647 JÉROUVILLE SAMUEL SEH 50 00:54:43 04:45 12.61
144 2 BOUVIER BENOIT V1 40 00:54:44 04:46 12.61
145 49 DECOUX PATRICK V2 31 00:54:57 04:47 12.56
146 2891 BIART QUENTIN SEH 51 00:55:06 04:47 12.52
147 2912 BADO MATHIEU SEH 52 00:55:09 04:48 12.51
148 2825 LEGERE RENAUD SEH 53 00:55:10 04:48 12.51
149 2821 CLOSON DENIS V1 41 00:55:16 04:48 12.48
150 2955 BERTUZZI FRANCOIS SEH 54 00:55:21 04:49 12.47
151 2934 JUDEX JEAN MICHEL V2 32 00:55:26 04:49 12.45
152 897 VAN UYTVINCK PIERRE V1 42 00:55:29 04:49 12.44
153 2614 DESMET GAËTAN SEH 55 00:55:41 04:51 12.39
154 2940 PUTTENEERS SEBASTIEN SEH 56 00:55:42 04:51 12.39
155 954 FLORE CARLO V2 33 00:55:43 04:51 12.38
156 98 TREVISAN DAVID V1 43 00:55:46 04:51 12.37
157 2650 JULIEN STÉPHANIE A1 2 00:55:57 04:52 12.33
158 276 GILON MARC V2 34 00:56:00 04:52 12.32
159 2939 ROBAYE EDDY V1 44 00:56:03 04:52 12.31
160 2923 GANY NICKY SEH 57 00:56:03 04:52 12.31
161 2930 JAUNIAUX MARIE A1 3 00:56:10 04:53 12.28
162 2666 NOSSAINT PHILIPPE V2 35 00:56:11 04:53 12.28
163 2910 MASSART JC V1 45 00:56:11 04:53 12.28
164 314 CARTIAUX MURIEL A2 3 00:56:15 04:53 12.27
165 300 ELAERTS BENOIT V2 36 00:56:17 04:54 12.26
166 121 SCHNEIDER THOMAS SEH 58 00:56:25 04:54 12.23
167 886 RICCI GUILLAUME SEH 59 00:56:27 04:55 12.22
168 2639 GILLES BERNARD V1 46 00:56:34 04:55 12.20
169 2884 LAMBILLION JENNY A1 4 00:56:34 04:55 12.20
170 2849 POLET ALAIN V2 37 00:56:35 04:55 12.19
171 33 THYS XAVIER V1 47 00:56:35 04:55 12.19
172 7 ROB VINCENT SEH 60 00:56:36 04:55 12.19
173 450 SCHALKWIJK BENOIT V2 38 00:56:36 04:55 12.19
174 275 MATHY JEAN-LUC V3 8 00:56:37 04:55 12.19
175 2859 LEROY BENJAMIN SEH 61 00:56:38 04:55 12.18
176 2616 DE VREESE PIERRICK SEH 62 00:56:39 04:56 12.18
177 367 CAPORALE JULIEN SEH 63 00:56:40 04:56 12.18
178 2853 GENDARME NICOLAS ESH 6 00:56:41 04:56 12.17
179 2965 GERARD XAVIER SEH 64 00:56:45 04:56 12.16
180 2841 OULUKOFF NAMJAL V2 39 00:56:50 04:57 12.14
181 2913 THEUNIS OLIVIER V1 48 00:56:51 04:57 12.14
182 167 FERAUCHE JEAN-MARIE V3 9 00:56:54 04:57 12.13
183 364 BALTUS RENAUD V1 49 00:57:00 04:57 12.11
184 55 BERNARD JEAN V2 40 00:57:03 04:58 12.09
185 422 PERMENTIER BERTRAND V1 50 00:57:03 04:58 12.09
186 2844 ZICOT GERARD V2 41 00:57:09 04:58 12.07
187 2607 DECEULENEER CÉDRIC SEH 65 00:57:10 04:58 12.07
188 703 KNOTT FABIENNE A2 4 00:57:14 04:59 12.06
189 2662 MINET LAURENT V2 42 00:57:18 04:59 12.04
190 2976 ELMARCHI HASSEM - 2 00:57:19 04:59 12.04
191 2890 LIBOIS OLIVIER V1 51 00:57:30 05:00 12.00
192 2847 ROSSILLON LUC V1 52 00:57:31 05:00 12.00
193 77 COSTANZO ERASMO SEH 66 00:57:32 05:00 11.99
194 8 HENIN VIRGINIE SEF 6 00:57:33 05:00 11.99
195 155 GONZE ADRIEN SEH 67 00:57:33 05:00 11.99
196 2656 LIBOIS JEAN-MARC V1 53 00:57:39 05:01 11.97
197 207 DESSEILLE ERNEST V3 10 00:57:40 05:01 11.97
198 2855 RUBAY OLIVIIER V1 54 00:57:42 05:01 11.96
199 337 DANHIER CHRISTOPHE V2 43 00:57:43 05:01 11.95
200 154 HENRIOULLE JÉRÔME SEH 68 00:57:50 05:02 11.93
201 2603 CHAIB EDDOUR ALI V1 55 00:57:53 05:02 11.92
202 2677 WENIN NICOLAS SEH 69 00:57:54 05:02 11.92
203 864 GUIDO GIANNI SEH 70 00:57:56 05:02 11.91
204 2961 BEAUGNEE SEBASTIEN V1 56 00:58:18 05:04 11.84
205 242 COULON SOPHIE A1 5 00:58:26 05:05 11.81
206 15 LABBE CHRISTIAN V3 11 00:58:27 05:05 11.80
207 2854 DE MEULDER XAVIER SEH 71 00:58:31 05:05 11.79
208 2959 VAN BEERS MAXIME SEH 72 00:58:34 05:06 11.78
209 371 EDEBOUW PHILIPPE V3 12 00:58:34 05:06 11.78
210 2612 DE SAEDELEER PATRICK V3 13 00:58:44 05:06 11.75
211 2602 BURNY ROGER V3 14 00:59:01 05:08 11.69
212 876 MICHEL MARTINE A3 4 00:59:02 05:08 11.69
213 2881 VANSILLIETTE NICOLAS SEH 73 00:59:02 05:08 11.69
214 2669 PAO-MOLE AMILCAR V1 57 00:59:03 05:08 11.69
215 325 VANDERMEULEN DENIS V1 58 00:59:07 05:08 11.67
216 2635 FAMRÉE XAVIER SEH 74 00:59:10 05:09 11.66
217 936 CASSART JEAN LUC V2 44 00:59:13 05:09 11.65
218 2894 GOOSSENS BRUNO SEH 75 00:59:16 05:09 11.64
219 2975 DOMBRET CYRIL SEH 76 00:59:23 05:10 11.62
220 6 RODRIGUEZ MERINO ENRIQUE V2 45 00:59:33 05:11 11.59
221 2864 LAMBERT PHILIPPE V1 59 00:59:35 05:11 11.58
222 2946 MALOTAUX FRANCOIS V1 60 00:59:35 05:11 11.58
223 2925 CARPIAUX SERGI V1 61 00:59:36 05:11 11.58
224 2820 TRUANT MICHEL V3 15 00:59:37 05:11 11.57
225 2858 DELBRUYERE CLARA SEF 7 00:59:50 05:12 11.53
226 159 BUFFET PATRICK V2 46 00:59:54 05:13 11.52
227 2919 HENRICOT ERIC V2 47 00:59:58 05:13 11.51
228 124 GEORGE JEAN V1 62 00:59:58 05:13 11.51
229 2876 LESOIL NICOLAS SEH 77 00:59:58 05:13 11.51
230 93 DELMOTTE YVES V3 16 1:00:03 05:13 11.49
231 2957 DOYEN MARC V3 17 1:00:08 05:14 11.47
232 440 BAL ALAIN V2 48 1:00:13 05:14 11.46
233 2905 DINJART THIBAULT SEH 78 1:00:13 05:14 11.46
234 916 FARVACQUE JAMIE A1 6 1:00:15 05:14 11.45
235 156 PRETER SERGE V3 18 1:00:16 05:14 11.45
236 2868 VAN DEN BOSSCHE THIERRY V1 63 1:00:19 05:15 11.44
237 2942 BIAMONT KEVIN V1 64 1:00:29 05:16 11.41
238 878 MOUYARD ELODIE A2 5 1:00:37 05:16 11.38
239 2651 KECHIDA REDOUANE SEH 79 1:00:39 05:16 11.38
240 2931 ANDRE PASCAL V2 49 1:00:40 05:17 11.37
241 843 DEBACKER AURORE SEF 8 1:00:42 05:17 11.37
242 2953 GENIN KATHLEEN A1 7 1:00:45 05:17 11.36
243 2932 HERPIGNY ERIC V2 50 1:00:45 05:17 11.36
244 797 CONOSCENTI ANDRÉ SEH 80 1:00:50 05:17 11.34
245 2638 GILAIN PHILIPPE V2 51 1:00:50 05:17 11.34
246 288 TIELEMANS PHILIPPE V2 52 1:00:56 05:18 11.32
247 2907 MERTENS BERTRAND SEH 81 1:00:56 05:18 11.32
248 2920 DE GREEF PATRICK V2 53 1:00:57 05:18 11.32
249 122 BRUYÈRE SERGE V2 54 1:01:00 05:18 11.31
250 2659 MALHERBE GEOFFROY V1 65 1:01:03 05:19 11.30
251 323 LECONTE EMMELINE A1 8 1:01:08 05:19 11.29
252 2886 JAVAUX SEBASTIEN SEH 82 1:01:12 05:19 11.27
253 2887 GERARD CHRISTOPHE SEH 83 1:01:13 05:19 11.27
254 200 KINIF PHILIPPE V2 55 1:01:16 05:20 11.26
255 201 LAGNEAUX CELINE A1 9 1:01:16 05:20 11.26
256 398 MEURRENS YVON V3 19 1:01:17 05:20 11.26
257 2813 DE NARDI JEAN-CARLO V2 56 1:01:18 05:20 11.26
258 135 BOURMORCK CARINE A2 6 1:01:18 05:20 11.26
259 356 DEBROUX ROMAIN SEH 84 1:01:20 05:20 11.25
260 2862 RUBAY RAPHAEL SEH 85 1:01:22 05:20 11.24
261 2810 VANDEZANDE LUC V3 20 1:01:32 05:21 11.21
262 2945 GEENS GREGORY V1 66 1:01:45 05:22 11.17
263 2879 POGORZELEC ERIC V2 57 1:01:56 05:23 11.14
264 420 VAN LAETHEM ELOI V3 21 1:01:57 05:23 11.14
265 2906 WILLEMS XAVIER V1 67 1:01:57 05:23 11.14
266 436 CARLIER PASACLE A3 5 1:02:15 05:25 11.08
267 365 BALZAT SONIA A1 10 1:02:22 05:25 11.06
268 216 COMANDINI LUCIANO V3 22 1:02:22 05:25 11.06
269 845 DEBODT ELODIE SEF 9 1:02:25 05:26 11.05
270 2834 SAUMON LUC SEH 86 1:02:28 05:26 11.05
271 2852 GENDARME PHILIPPE V2 58 1:02:32 05:26 11.03
272 46 BLONDIAU MARC V1 68 1:02:42 05:27 11.00
273 2600 BORCEUX PAULINE SEF 10 1:02:46 05:27 10.99
274 2933 LAPAGNE FRANCOISE A2 7 1:02:47 05:28 10.99
275 218 CLEPPE VINCENT V1 69 1:02:48 05:28 10.99
276 150 ROUVROY DANIEL V3 23 1:02:53 05:28 10.97
277 2936 HUMBLET CELINE SEF 11 1:03:03 05:29 10.94
278 857 FISICARO JEROME SEH 87 1:03:10 05:30 10.92
279 2867 BRAMS DIDIER V1 70 1:03:11 05:30 10.92
280 881 PIROTTE CHRISTOPHER SEH 88 1:03:11 05:30 10.92
281 2873 BRAMS HUGUES V2 59 1:03:12 05:30 10.92
282 163 COCO LUIGI V2 60 1:03:13 05:30 10.91
283 2654 LEGRAND BERNARD V2 61 1:03:16 05:30 10.91
284 2845 LAMBRECHTS JEREMIE SEH 89 1:03:19 05:30 10.90
285 27 PANNEELS JEAN-JACQUES V3 24 1:03:21 05:31 10.89
286 2911 ALEXIS KRISTEL A2 8 1:03:23 05:31 10.89
287 202 MASSART VICTOR V3 25 1:03:33 05:32 10.86
288 806 CHALTIN ALICIA SEF 12 1:03:34 05:32 10.85
289 894 VALLERY BENEDICTE A1 11 1:03:40 05:32 10.84
290 2914 GEGO BENOIT V2 62 1:03:42 05:32 10.83
291 2830 PENSIS HENRI V3 26 1:04:09 05:35 10.76
292 2969 BOREUX MICHAEL V1 71 1:04:12 05:35 10.75
293 2827 NELIS BENOIT V1 72 1:04:14 05:35 10.74
294 127 DIEUDONNE CLAIRE A3 6 1:04:16 05:35 10.74
295 796 SCIGLIUZZO DANIEL V2 63 1:04:23 05:36 10.72
296 2828 MARNEFFE AXEL SEH 90 1:04:23 05:36 10.72
297 2674 VANDY FLORENCE A1 12 1:04:25 05:36 10.71
298 2973 BODART LUC V2 64 1:04:26 05:36 10.71
299 865 HERALY CHRISTINE A2 9 1:04:40 05:37 10.67
300 2823 GIOT AGNES A2 10 1:04:42 05:38 10.66
301 2842 DEHANT ANNE-PASCALE A2 11 1:04:56 05:39 10.63
302 798 GANDIBLEUX KARINE A2 12 1:05:00 05:39 10.62
303 2818 DUBOIS VINCENT V1 73 1:05:03 05:39 10.61
304 2880 SCHEYVEN GENEVIEVE A2 13 1:05:04 05:39 10.60
305 2663 MINSART CATHERINE A3 7 1:05:12 05:40 10.58
306 2921 ROBERTI DE WINGHE MAX V3 27 1:05:22 05:41 10.56
307 2935 LIBERTIAUX ANNE A2 14 1:05:29 05:42 10.54
308 859 GENOT PAMELA A1 13 1:05:37 05:42 10.52
309 2888 POELMANS DOMINIQUE V2 65 1:05:37 05:42 10.52
310 2956 BURTON PATRICIA A3 8 1:05:40 05:43 10.51
311 2646 HIERTZ MICHEL SEH 91 1:05:48 05:43 10.49
312 2951 ORBAN CAROLINE SEF 13 1:06:04 05:45 10.44
313 2917 MICHAUX CHRISTAIN V3 28 1:06:09 05:45 10.43
314 2943 DELFORGE FRANCE A1 14 1:06:24 05:46 10.39
315 2889 VANDENBUSSCHE DAPHNE A1 15 1:06:40 05:48 10.35
316 2613 DESMET EMELINE SEF 14 1:06:41 05:48 10.35
317 2811 LABY JUSTINE SEF 15 1:06:44 05:48 10.34
318 2895 GOOSSENS MARC V3 29 1:06:50 05:49 10.32
319 2609 DELHAISE RUDY V1 74 1:07:11 05:51 10.27
320 2643 GOVAERTS OLIVIER V1 75 1:07:11 05:51 10.27
321 2655 LEGROS FREDERIC V1 76 1:07:19 05:51 10.25
322 2668 OHN VERONIQUE A2 15 1:07:20 05:51 10.25
323 850 DENOLF SOPHIE ESF 1 1:07:21 05:51 10.24
324 2637 FOULON MARIE-PAULE A3 9 1:07:41 05:53 10.19
325 2645 GRÉGOIRE LISETTE SEF 16 1:07:42 05:53 10.19
326 2822 POTY MADISON SEF 17 1:07:44 05:53 10.19
327 764 SILVA E SA CRISTINA A1 16 1:07:44 05:53 10.19
328 5 DUSSART JEAN-PIERRE V3 30 1:07:49 05:54 10.17
329 23 POTY FRANCIS V2 66 1:07:50 05:54 10.17
330 291 PESETTI MIRANDA A2 16 1:07:50 05:54 10.17
331 2966 PONSARD FRANCOISE A3 10 1:07:57 05:55 10.15
332 824 ANIQUE FABIENNE A3 11 1:08:27 05:57 10.08
333 705 MINET FLORIAN SEH 92 1:08:41 05:58 10.05
334 110 VAN IMMERSEEL SANDRINE A1 17 1:08:43 05:59 10.04
335 2908 DEVROYE BENOIT V1 77 1:08:53 05:59 10.02
336 257 AUTEQUIITE BENEDICTE A1 18 1:09:03 06:00 9.99
337 87 CULOT PATRICK V2 67 1:09:06 06:01 9.99
338 454 BARIGAND JACQUELINE A3 12 1:09:08 06:01 9.98
339 2944 GILBERT CHRISTELLE A2 17 1:09:11 06:01 9.97
340 96 BASSOULET JEAN CLAUDE V4 1 1:09:11 06:01 9.97
341 854 DUFRESNE VALÉRIE A1 19 1:09:12 06:01 9.97
342 862 GLAVIE SANDY A1 20 1:09:13 06:01 9.97
343 2653 LA PAGLIA SILVANO V2 68 1:09:15 06:01 9.96
344 840 DAMME CHRISTINE A1 21 1:09:53 06:05 9.87
345 131 PEGORARO ROBERTO V3 31 1:10:03 06:05 9.85
346 2819 WEYDERS MARCEL V4 2 1:10:30 06:08 9.79
347 2949 MARLET SERGE V2 69 1:10:53 06:10 9.73
348 2915 NEMERY CHRISTINE A2 18 1:10:54 06:10 9.73
349 2893 DEMEULEMEESTER CAROLE A2 19 1:11:01 06:11 9.72
350 2892 VERHELST GENEVIEVE A2 20 1:11:05 06:11 9.71
351 2641 GILSON GERALDINE A2 21 1:11:06 06:11 9.70
352 2902 MOTTART CATHY A1 22 1:11:06 06:11 9.70
353 2832 KEUNEUL CATHERINE A2 22 1:11:10 06:11 9.70
354 813 NOIZET MARIE-ALICE A2 23 1:11:10 06:11 9.70
355 126 GEORGE AMANDINE ESF 2 1:11:16 06:12 9.68
356 29 VANHUFFELEN JOSSELINE A3 13 1:11:17 06:12 9.68
357 2678 WOUTERS WILLIAM V1 78 1:11:25 06:13 9.66
358 2968 MARTIN VALERIE A1 23 1:12:07 06:16 9.57
359 706 COLLIN JONATHAN SEH 93 1:12:29 06:18 9.52
360 2952 FLAMENT PHILIPPE V2 70 1:12:32 06:18 9.51
361 2593 AKAL EMEL A2 24 1:12:36 06:19 9.50
362 2851 BOTTEGA CEDRIC SEH 94 1:12:37 06:19 9.50
363 83 DENYS CHRISTIAN V3 32 1:12:47 06:20 9.48
364 921 RENAUX NATHALIE A2 25 1:12:57 06:21 9.46
365 219 LONGVAL FLORENCE A2 26 1:13:21 06:23 9.41
366 786 DEPILLECYN JEAN-MARIE V3 33 1:13:22 06:23 9.40
367 2595 BAUD'HUIN CÉCILE A2 27 1:13:23 06:23 9.40
368 2950 BONDARENCO VERA A1 24 1:13:37 06:24 9.37
369 2622 DUPLAT ANNE A1 25 1:13:39 06:24 9.37
370 2916 DENEFFE PHILIPPE V2 71 1:13:44 06:25 9.36
371 2610 DELHAISE VANESSA A1 26 1:13:44 06:25 9.36
372 106 LEONARD FRANCIS V3 34 1:13:48 06:25 9.35
373 2611 DE SAEDELEER FRANCOISE A4 1 1:13:50 06:25 9.35
374 290 TAVIER PASCAL V2 72 1:13:52 06:25 9.34
375 2918 VAN LAER NADINE A2 28 1:14:41 06:30 9.24
376 2863 SNAUWAERT DENIS SEH 95 1:14:41 06:30 9.24
377 2883 TALLIER JEANNY A3 14 1:14:41 06:30 9.24
378 2861 COLLUGNON STEPHANIE A1 27 1:14:43 06:30 9.23
379 2605 CRAHAY VINCIANE A1 28 1:14:45 06:30 9.23
380 919 TCHEKEMIAN NICOLE A4 2 1:15:21 06:33 9.16
381 289 SIBILLE CÉCILE A2 29 1:15:40 06:35 9.12
382 909 SEPULCHRE MICHAEL V3 35 1:15:41 06:35 9.12
383 884 RAGUZZI NADIA A2 30 1:15:41 06:35 9.12
384 2667 OHN NATHALIE A1 29 1:17:08 06:42 8.95
385 2621 DUCAMP JEAN-POL V3 36 1:17:09 06:43 8.94
386 2963 CANTARELLA AGATINA SEF 18 1:17:27 06:44 8.91
387 2964 CANTARELLA ANTONINO SEH 96 1:17:28 06:44 8.91
388 2596 BERLEMONT ISABELLE A2 31 1:17:34 06:45 8.90
389 2904 REMACLE ELINE A1 30 1:17:36 06:45 8.89
390 2900 LECLERCQ MARIE SEF 19 1:17:44 06:46 8.88
391 2875 KNAPEN JOHAN SEH 97 1:19:36 06:55 8.67
392 2874 BRAMS EMELINE SEF 20 1:19:37 06:55 8.67
393 2649 JOUAN MARIE SEF 21 1:20:17 06:59 8.59
394 2648 JOUAN CÉLINE SEF 22 1:20:19 06:59 8.59
395 2606 DAS LAETITIA A1 31 1:20:20 06:59 8.59
396 2901 WAUTHIER MICHEL V3 37 1:20:55 07:02 8.53
397 149 WILLEM CÉCILE A1 32 1:22:18 07:09 8.38
398 90 HERMANT DOMINIQUE A3 15 1:22:37 07:11 8.35
399 137 ALEXANDRE PASCAL V2 73 1:22:57 07:13 8.32
400 215 WILLEM MARIE A1 33 1:23:17 07:15 8.28
401 2974 COPPIETERS BRUNO V3 38 1:25:23 07:25 8.08
402 2857 DUMONT ANTOINE SEH 98 1:28:50 07:43 7.77